Weather in Blagoevo

Russia / Komi Republic     63°25′34″N   47°56′56″E
temp.,
°C
wind,
m/s
gust,
m/s
humid.,
%
clouds,
%
prec.,
mm/h
press.,
hPa
HPBL,
m
18 august, thu
thu1800:00+15sse399332 0.6 1024197
03:00+15sse279495 1.3 1025200
06:00+16s279298 0.0 1025210
09:00+21ssw247320 0.0 1026433
12:00+27sw344525 0.0 10251828
15:00+24wsw245695 0.0 1025218
18:00+23ssw266277 0.0 1026249
21:00+19ssw226956 0.0 102740
19 august, fri
fri1900:00+17sw227818 0.0 102841
03:00+17ssw248193 0.0 102979
06:00+19ssw267298 0.0 1029212
09:00+25wsw35485 0.0 1030663
12:00+28wsw46365 0.0 10292343
15:00+28wsw45335 0.0 10292467
18:00+25wsw26465 0.0 1028220
21:00+19wsw246727 0.0 102973
20 august, sat
sat2000:00+17wsw24765 0.0 103070
03:00+16wsw25833 0.0 1030106
06:00+18wsw25715 0.0 1031167
09:00+24wsw34475 0.0 1031632
12:00+27wsw343741 0.0 10301643
15:00+28wsw343261 0.0 10291815
18:00+24sw254484 0.0 1029137
21:00+17wsw226027 0.0 102940
21 august, sun
sun2100:00+15sw226812 0.0 103015
03:00+13sw11744 0.0 103011
06:00+16sw12655 0.0 103081
09:00+22sw23424 0.0 1030532
12:00+26sw34313 0.0 10291369
15:00+26sw342860 0.0 10281544
18:00+21sw2347100 0.0 102859
21:00+17sw2257100 0.0 102913
22 august, mon
mon2200:00+15ssw2263100 0.0 102919
03:00+14s2268100 0.0 102935
06:00+15ssw2568100 0.0 1029133
09:00+21ssw2448100 0.0 1029468
12:00+25sw353441 0.0 10281437
15:00+27sw45295 0.0 10271878
18:00+23sw24481 0.0 102784
21:00+18ssw22670 0.0 102824